Flag Weather past 2 weeks in Virginia Beach, Virginia, U.S.A.

Now
39 °F

Passing clouds.


Feels Like: 39 °F
Forecast: 37 / 62 °F
Wind: No wind

Location: Virginia Beach - Oceana

Current Time: Nov 23, 2014 at 6:34:09 AM

Latest Report: Nov 23, 2014 at 5:56 AM


Visibility: 10 mi

Pressure: 30.30 "Hg

Humidity: 76%

Dew point: 32 °F

Location of Virginia BeachLocation

Historic Weather in Virginia Beach — Graph

°F

Virginia Beach temperature yesterday

Maximum temperature yesterday: 52 °F (at 2:56 PM)
Minimum temperature yesterday: 24 °F (at 4:56 AM)
Average temperature yesterday: 38 °F

Past Weeks' High & Low Weather Summary

 TemperatureHumidityPressure
High74 °F (Nov 17, 2:56 PM)97% (Nov 11, 8:56 AM)30.57 "Hg (Nov 11, 8:56 AM)
Low24 °F (Nov 22, 4:56 AM)26% (Nov 19, 1:56 PM)29.56 "Hg (Nov 17, 5:56 PM)
Average48 °F65%30.13 "Hg
* Reported Nov 8 4:56 AM — Nov 23 4:56 AM, Virginia Beach, Weather by CustomWeather, © 2014

Note: Actual official high and low records may vary slightly from our data, if they occured in-between our weather recording intervals... More about our weather records

Advertising

Virginia Beach weather history for previous 24 hours

 ConditionsComfort  
Time TempWeatherWind HumidityBarometerVisibility
4:56 AM
Nov 23
37 °FPassing clouds.3 mph79%30.30 "Hg10 mi
3:56 AM38 °FPassing clouds.No wind76%30.30 "Hg10 mi
2:56 AM39 °FPassing clouds.3 mph73%30.31 "Hg10 mi
1:56 AM37 °FPassing clouds.5 mph73%30.31 "Hg10 mi
12:56 AM35 °FPassing clouds.3 mph75%30.32 "Hg10 mi
11:56 PM
Nov 22
37 °FPassing clouds.3 mph70%30.33 "Hg10 mi
10:56 PM38 °FClear.3 mph65%30.36 "Hg10 mi
9:56 PM37 °FClear.No wind70%30.37 "Hg10 mi
8:56 PM42 °FPassing clouds.5 mph57%30.36 "Hg10 mi
7:56 PM40 °FPassing clouds.3 mph51%30.37 "Hg10 mi
6:56 PM39 °FPassing clouds.No wind50%30.38 "Hg10 mi
5:56 PM41 °FPartly cloudy.No wind51%30.39 "Hg10 mi
4:56 PM48 °FPassing clouds.3 mph37%30.40 "Hg10 mi
3:56 PM51 °FPartly sunny.7 mph31%30.40 "Hg10 mi
2:56 PM52 °FPartly sunny.12 mph30%30.41 "Hg10 mi
1:56 PM51 °FPartly sunny.12 mph31%30.44 "Hg10 mi
12:56 PM51 °FPartly sunny.8 mph29%30.47 "Hg10 mi
11:56 AM50 °FPartly sunny.8 mph33%30.51 "Hg10 mi
10:56 AM48 °FPartly sunny.9 mph33%30.55 "Hg10 mi
9:56 AM46 °FPartly sunny.6 mph40%30.57 "Hg10 mi
8:56 AM39 °FScattered clouds.No wind62%30.57 "Hg10 mi
7:56 AM30 °FScattered clouds.No wind79%30.57 "Hg10 mi
6:56 AM25 °FPassing clouds.No wind81%30.56 "Hg10 mi
Weather by CustomWeather, © 2014

See weather overviewHow to use our weather pages